{"data":{"norad_id":69575,"epoch":"2026-09-20T00:22:40.718784Z","epoch_age_seconds":70865,"freshness":"FRESH","line1":"1 69575U 26137D   26263.01574906 -.00000082  00000+0  90842-4 0  9999","line2":"2 69575  49.9960 255.7775 0000258 349.7048  10.3819 13.29324166 12944","mean_motion":13.29324166,"eccentricity":2.58e-5,"inclination_deg":49.996,"raan_deg":255.7775,"arg_perigee_deg":349.7048,"mean_anomaly_deg":10.3819,"bstar":9.0842e-5,"rev_number":1294,"period_min":108.32572195938,"perigee_km":1149.1192871132,"apogee_km":1149.5077035588,"semimajor_km":7527.450495336,"source":"CELESTRAK","updated_at":"2026-09-20T09:00:24.993390Z"}}